Weather History for Scottsboro, AL

Change the Weather History Date:

Sunday, December 9, 2012

  Actual Average (KHSV) Record (KHSV)
Temperature  
Mean Temperature 64 °F 45 °F  
Max Temperature 69 °F 55 °F 73 °F (1952)
Min Temperature 59 °F 36 °F 5 °F (1917)
Degree Days  
Heating Degree Days 1 20  
Month to date heating degree days 170  
Since 1 July heating degree days 697  
Cooling Degree Days 0 0  
Month to date cooling degree days 0  
Year to date cooling degree days 1949  
Growing Degree Days 14 (Base 50)    
Moisture  
Dew Point 56 °F    
Average Humidity 75    
Maximum Humidity 100    
Minimum Humidity 56    
Precipitation  
Precipitation 0.00 in 0.21 in 3.25 in (2008)
Month to date precipitation 1.77  
Year to date precipitation 50.34  
Snow  
Snow 0.00 in - - ()
Month to date snowfall  
Since 1 July snowfall  
Snow Depth -    
Sea Level Pressure  
Sea Level Pressure 29.98 in    
Wind  
Wind Speed - (North)    
Max Wind Speed -    
Max Gust Speed -    
Visibility 4 miles    
Events      
T = Trace of Precipitation, MM = Missing Value Source: NWS Daily Summary

Daily Weather History Graph

Daily Weather History Graph

Search for Another Location

Airport:

Trip Planner

Search our weather history database for the weather conditions in past years. The results will help you decide how hot, cold, wet, or windy it might be!

Date:

Astronomy

Dec. 09, 2012 Rise Set
Actual Time 6:39 AM CST 4:33 PM CST
Civil Twilight 6:12 AM CST 5:01 PM CST
Nautical Twilight 5:40 AM CST 5:32 PM CST
Astronomical Twilight 5:09 AM CST 6:03 PM CST
Moon 2:19 AM CST (12/9) 1:33 PM CST (12/9)
Length of Visible Light 10h 49m
Length of Day
9h 53m
Waning Crescent, 18% of the Moon is Illuminated
Dec 9
Waning Crescent
Dec 13
New
Dec 19
First Quarter
Dec 28
Full
Jan 4
Last Quarter

Hourly Weather History & Observations

Time (CST) Temp. Dew Point Humidity Pressure Visibility Wind Dir Wind Speed Gust Speed Precip Events Conditions
12:15 AM 59.0 °F 59.0 °F 100% 30.02 in 2.5 mi North - - N/A   Overcast
12:35 AM 59.0 °F 57.2 °F 94% 30.01 in 3.0 mi North - - N/A   Mostly Cloudy
12:55 AM 59.0 °F 59.0 °F 100% 30.02 in 3.0 mi North - - N/A   Mostly Cloudy
1:15 AM 60.8 °F 59.0 °F 94% 30.01 in 3.0 mi North - - N/A   Mostly Cloudy
1:35 AM 59.0 °F 59.0 °F 100% 30.01 in 3.0 mi North - - N/A   Mostly Cloudy
1:55 AM 62.6 °F 59.0 °F 88% 30.00 in 4.0 mi North - - N/A   Overcast
2:35 AM 62.6 °F 59.0 °F 88% 30.01 in 4.0 mi North - - N/A   Mostly Cloudy
2:55 AM 62.6 °F 59.0 °F 88% 30.00 in 4.0 mi North - - N/A   Mostly Cloudy
3:15 AM 62.6 °F 59.0 °F 88% 30.01 in 4.0 mi North - - N/A   Overcast
3:35 AM 62.6 °F 59.0 °F 88% 30.00 in 3.0 mi North - - N/A   Mostly Cloudy
3:55 AM 62.6 °F 59.0 °F 88% 30.01 in 3.0 mi North - - N/A   Mostly Cloudy
4:15 AM 62.6 °F 59.0 °F 88% 30.01 in 3.0 mi North - - N/A   Overcast
4:35 AM 62.6 °F 59.0 °F 88% 30.01 in 3.0 mi North - - N/A   Mostly Cloudy
4:55 AM 62.6 °F 59.0 °F 88% 30.01 in 3.0 mi North - - N/A   Mostly Cloudy
5:35 AM 62.6 °F 59.0 °F 88% 30.01 in 3.0 mi North - - N/A   Mostly Cloudy
5:55 AM 62.6 °F 59.0 °F 88% 30.02 in 3.0 mi North - - N/A   Mostly Cloudy
6:15 AM 62.6 °F 59.0 °F 88% 30.02 in 3.0 mi North - - N/A   Overcast
6:35 AM 62.6 °F 59.0 °F 88% 30.03 in 3.0 mi North - - N/A   Overcast
6:55 AM 62.6 °F 59.0 °F 88% 30.03 in 2.5 mi North - - N/A   Mostly Cloudy
7:15 AM 62.6 °F 59.0 °F 88% 30.03 in 2.5 mi North - - N/A   Partly Cloudy
7:35 AM 62.6 °F 59.0 °F 88% 30.03 in 2.5 mi North - - N/A   Mostly Cloudy
7:55 AM 62.6 °F 59.0 °F 88% 30.04 in 2.0 mi North - - N/A   Overcast
8:15 AM 62.6 °F 57.2 °F 82% 30.03 in 2.5 mi North - - N/A   Haze
8:35 AM 64.4 °F 57.2 °F 77% 30.04 in 2.5 mi North - - N/A   Haze
8:55 AM 64.4 °F 57.2 °F 77% 30.04 in 3.0 mi North - - N/A   Haze
9:15 AM 66.2 °F 55.4 °F 68% 30.05 in 3.0 mi North - - N/A   Haze
9:35 AM 64.4 °F 55.4 °F 73% 30.05 in 3.0 mi North - - N/A   Haze
9:55 AM 64.4 °F 55.4 °F 73% 30.05 in 3.0 mi North - - N/A   Haze
10:15 AM 64.4 °F 55.4 °F 73% 30.05 in 3.0 mi North - - N/A   Haze
10:35 AM 66.2 °F 55.4 °F 68% 30.03 in 3.0 mi North - - N/A   Haze
10:55 AM 68.0 °F 55.4 °F 64% 30.02 in 3.0 mi North - - N/A   Haze
11:15 AM 68.0 °F 55.4 °F 64% 30.01 in 3.0 mi North - - N/A   Haze
11:35 AM 68.0 °F 55.4 °F 64% 30.00 in 3.0 mi North - - N/A   Haze
11:55 AM 68.0 °F 55.4 °F 64% 29.99 in 4.0 mi North - - N/A   Haze
12:15 PM 68.0 °F 55.4 °F 64% 29.98 in 4.0 mi North - - N/A   Haze
12:35 PM 68.0 °F 53.6 °F 60% 29.98 in 5.0 mi North - - N/A   Haze
12:55 PM 68.0 °F 55.4 °F 64% 29.98 in 4.0 mi North - - N/A   Haze
1:15 PM 69.8 °F 55.4 °F 60% 29.97 in 4.0 mi North - - N/A   Haze
1:35 PM 69.8 °F 53.6 °F 56% 29.98 in 4.0 mi North - - N/A   Haze
1:55 PM 68.0 °F 55.4 °F 64% 29.98 in 3.0 mi North - - N/A   Haze
2:15 PM 68.0 °F 55.4 °F 64% 29.98 in 3.0 mi North - - N/A   Haze
2:35 PM 68.0 °F 55.4 °F 64% 29.98 in 4.0 mi North - - N/A   Haze
2:55 PM 68.0 °F 55.4 °F 64% 29.97 in 3.0 mi North - - N/A   Haze
3:15 PM 68.0 °F 55.4 °F 64% 29.97 in 3.0 mi North - - N/A   Haze
3:35 PM 66.2 °F 55.4 °F 68% 29.98 in 3.0 mi North - - N/A   Haze
3:55 PM 66.2 °F 53.6 °F 64% 29.98 in 3.0 mi North - - N/A   Haze
4:15 PM 66.2 °F 53.6 °F 64% 29.98 in 3.0 mi North - - N/A   Haze
4:35 PM 66.2 °F 53.6 °F 64% 29.97 in 3.0 mi North - - N/A   Haze
4:55 PM 64.4 °F 53.6 °F 68% 29.97 in 5.0 mi North - - N/A   Haze
5:15 PM 64.4 °F 53.6 °F 68% 29.97 in 5.0 mi North - - N/A   Haze
5:35 PM 64.4 °F 53.6 °F 68% 29.96 in 5.0 mi North - - N/A   Haze
5:55 PM 59.0 °F 53.6 °F 82% 29.96 in 5.0 mi North - - N/A   Haze
6:15 PM 60.8 °F 53.6 °F 77% 29.96 in 4.0 mi North - - N/A   Haze
6:55 PM 62.6 °F 55.4 °F 77% 29.96 in 4.0 mi North - - N/A   Haze
7:15 PM 62.6 °F 55.4 °F 77% 29.95 in 4.0 mi North - - N/A   Haze
7:35 PM 62.6 °F 55.4 °F 77% 29.94 in 4.0 mi North - - N/A   Haze
7:55 PM 62.6 °F 55.4 °F 77% 29.94 in 5.0 mi North - - N/A   Haze
8:15 PM 62.6 °F 55.4 °F 77% 29.94 in 4.0 mi North - - N/A   Haze
8:35 PM 64.4 °F 55.4 °F 73% 29.94 in 6.0 mi North - - N/A   Haze
9:15 PM 66.2 °F 53.6 °F 64% 29.92 in 6.0 mi North - - N/A   Haze
9:35 PM 66.2 °F 53.6 °F 64% 29.91 in 5.0 mi North - - N/A   Haze
9:55 PM 66.2 °F 53.6 °F 64% 29.91 in 6.0 mi North - - N/A   Haze
10:15 PM 66.2 °F 53.6 °F 64% 29.90 in 5.0 mi North - - N/A   Haze
10:35 PM 66.2 °F 53.6 °F 64% 29.89 in 6.0 mi North - - N/A   Haze
10:55 PM 66.2 °F 53.6 °F 64% 29.89 in 5.0 mi North - - N/A   Haze
11:15 PM 66.2 °F 53.6 °F 64% 29.88 in 5.0 mi North - - N/A   Haze
11:35 PM 66.2 °F 53.6 °F 64% 29.87 in 5.0 mi North - - N/A   Haze
11:55 PM 64.4 °F 55.4 °F 73% 29.86 in 6.0 mi North - - N/A   Haze